Tracking 18032 objects as of 27-March-2017
HD Live streaming from Space Station
objects crossing your sky now

COSMOS 1579

Track COSMOS 1579 now!
10-day predictions
COSMOS 1579 is classified as:


NORAD ID: 15085
Int'l Code: 1984-069A
Perigee: 925.9 km
Apogee: 973.8 km
Inclination: 65.1 °
Period: 103.9 minutes
Semi major axis: 7320 km
RCS: 2.625 m2 (large)
Launch date: June 29, 1984
Source: Commonwealth of Independent States (former USSR) (CIS)
Launch site: TYURATAM MISSILE AND SPACE COMPLEX (TTMTR)
Your satellite tracking list
Your tracking list is empty





NASA's NSSDC Master Catalog

Two Line Element Set (TLE):
1 15085U 84069A   17084.65953958 -.00000093 +00000-0 -38960-5 0  9991
2 15085 065.0511 186.5894 0032701 114.6260 245.8214 13.86042228658677
Source of the keplerian elements: AFSPC